Location: Newark
(51.8900°N, 2.0780°W)
Time: 13:32:14
(UTC+00:00)

Envisat - Pass Details

Date: 01 December 2019
Orbit: 764 x 766 km, 98.1° (Epoch: 14 December)

Event Time Altitude Azimuth Distance (km) Brightness Sun altitude
Rises 18:11:24 0° 173° (S) 3,221 6.3 -19.1°
Reaches altitude 10° 18:13:44 10° 177° (S) 2,299 5.6 -19.5°
Maximum altitude 18:18:45 63° 258° (WSW) 857 3.4 -20.3°
Drops below altitude 10° 18:23:49 10° 340° (NNW) 2,315 5.6 -21.0°
Sets 18:26:10 0° 344° (NNW) 3,245 6.3 -21.4°
